Regional Weather Roundup
Issued by NWS

Home | Current Version | Previous Version | Text Only | Print | Product List | Glossary Off
Versions: 1 2 3 4 5 6 7 8 9 10 11 12 13 14 15 16 17 18 19 20 21 22 23 24 25 26 27 28 29 30 31 32 33 34 35 36 37 38 39 40 41 42 43 44 45 46 47 48 49 50

000
ASUS45 KPSR 231100
RWRAZ

PRELIMINARY ARIZONA REGIONAL HOURLY WEATHER ROUNDUP
NATIONAL WEATHER SERVICE PHOENIX AZ
400 AM MST SAT AUG 23 2014

NOTE: FAIR INDICATES FEW OR NO CLOUDS BELOW 12,000 FEET WITH NO
SIGNIFICANT WEATHER AND/OR OBSTRUCTIONS TO VISIBILITY.

AZZ001>003-036-231200-
NORTHWEST ARIZONA

CITY           SKY/WX    TMP DP  RH WIND       PRES   REMARKS
KINGMAN        CLEAR     64  53  67 SE10      29.99F
$$

AZZ004>008-015-016-018-231200-
NORTH CENTRAL ARIZONA

CITY           SKY/WX    TMP DP  RH WIND       PRES   REMARKS
GRAND CANYON     N/A    N/A N/A N/A MISG        N/A
WILLIAMS       CLEAR     50  46  87 CALM      30.26S
PRESCOTT       CLEAR     58  51  78 CALM      30.13R
FLAGSTAFF      PTCLDY    49  47  93 SW3       30.23S
PAYSON         CLEAR     55  52  88 CALM      30.16R
PAGE           CLEAR     70  48  45 S5        30.00S
$$

AZZ009>014-017-231200-
NORTHEAST ARIZONA

CITY           SKY/WX    TMP DP  RH WIND       PRES   REMARKS
WINSLOW        NOT AVBL
SAINT JOHNS    CLEAR     53  49  86 CALM      30.16S
WINDOW ROCK    CLEAR     50  44  80 S5        30.21
$$

AZZ023-231200-
GREATER PHOENIX AREA

CITY           SKY/WX    TMP DP  RH WIND       PRES   REMARKS
PHOENIX        CLEAR     79  62  56 E8        29.88S
DEER VALLEY    CLEAR     76  61  59 E7        29.91R
SCOTTSDALE     CLEAR     76  64  66 CALM      29.93R
MESA-GATEWAY   CLEAR     72  59  64 E6        29.93S
$$

AZZ027-028-231200-
SOUTHWEST MARICOPA COUNTY AND PINAL COUNTY

CITY           SKY/WX    TMP DP  RH WIND       PRES   REMARKS
CASA GRANDE    CLEAR     72  54  53 CALM      29.93R
$$

AZZ503-504-507>509-231200-
SOUTHEAST ARIZONA

CITY           SKY/WX    TMP DP  RH WIND       PRES   REMARKS
TUCSON         CLEAR     74  63  68 SE5       30.02S
NOGALES        CLEAR     62  60  93 NE5       30.08F
SIERRA VISTA   CLEAR     63  60  90 S7        30.13S
SAFFORD        CLOUDY    72  58  61 CALM      30.01F
$$

AZZ020-021-025-026-031-231200-
SOUTHWEST ARIZONA

CITY           SKY/WX    TMP DP  RH WIND       PRES   REMARKS
YUMA           CLEAR     82  67  60 S6        29.84S
$$

CAZ031-033-041-043-047-048-061-231200-
SOUTHERN CALIFORNIA

CITY           SKY/WX    TMP DP  RH WIND       PRES   REMARKS
DOWNTOWN L.A.  CLOUDY    68  61  78 CALM      29.94S
L.A. AIRPORT   CLOUDY    69  60  73 CALM      29.94S
SAN DIEGO      PTCLDY    67  62  84 CALM      29.96R
BURBANK        CLOUDY    66  60  81 S3        29.95S
ONTARIO        CLEAR     65  61  87 S3        29.95S
RIVERSIDE      CLEAR     65  61  87 CALM      29.95F
PALM SPRINGS   CLEAR     77  42  28 CALM      29.85S
EL CENTRO NAS  CLEAR     78  55  44 SW10      29.82S
IMPERIAL       CLEAR     77  56  48 W9        29.81S
BLYTHE         CLEAR     76  54  46 S7        29.83R
$$

NVZ020-UTZ003-231200-
SOUTHERN NEVADA-UTAH

CITY           SKY/WX    TMP DP  RH WIND       PRES   REMARKS
LAS VEGAS      NOT AVBL
SALT LAKE CITY TSTM      57  53  86 W7        30.04R
$$

NMZ009-TXZ055-231200-
NEW MEXICO-WEST TEXAS

CITY           SKY/WX    TMP DP  RH WIND       PRES   REMARKS
ALBUQUERQUE    PTCLDY    59  55  87 N3        30.17R
EL PASO        MOCLDY    68  61  78 CALM      30.07S
$$


........................KEY........................
SKY/WX - SKY CONDITION/WEATHER
TMP    - TEMPERATURE IN FAHRENHEIT
DP     - DEW POINT IN FAHRENHEIT
RH     - RELATIVE HUMIDITY IN PERCENT
WIND   - DIRECTION AND SPEED IN MILES PER HOUR (MPH)
VRB    - VARIABLE WIND DIRECTION
PRES   - MEAN SEA LEVEL PRESSURE IN INCHES OF MERCURY
         F - FALLING PRESSURE   R - RISING PRESSURE
         S - STEADY PRESSURE
VSB    - VISIBILITY IN MILES
HX     - HEAT INDEX IN FAHRENHEIT
WCI    - WIND CHILL INDEX IN FAHRENHEIT
TC     - TEMPERATURE IN CELSIUS WHICH IS ALSO KNOWN AS
         TEMPERATURE IN CENTIGRADE
AFB    - AIR FORCE BASE
         LUKE AFB IS LUKE AIR FORCE BASE
         DAVIS-MONTHAN IS DAVIS-MONTHAN AIR FORCE BASE
NAS    - NAVAL AIR STATION
         EL CENTRO NAS IS EL CENTRO NAVAL AIR STATION
N/A    - NOT AVAILABLE


USA.gov is the U.S. government's official web portal to all federal, state and local government web resources and services.